Flag for U.S.A. Weather past 2 weeks in Olathe, Kansas, U.S.A.

Now
61 °F

Clear.


Feels Like: 61 °F
Forecast: 59 / 80 °F
Wind: No wind

Location: Johnson County Executive Airport

Current Time: Jul 29, 2014 at 6:43:39 AM

Latest Report: Jul 29, 2014 at 5:53 AM


Visibility: 10 mi

Pressure: 30.14 "Hg

Humidity: 90%

Dew point: 58 °F

Location of OlatheLocation

Historic Weather in Olathe — Graph

°F

Olathe temperature yesterday

Maximum temperature yesterday: 80 °F (at 2:53 PM)
Minimum temperature yesterday: 63 °F (at 5:53 AM)
Average temperature yesterday: 72 °F

Past Weeks' High & Low Weather Summary

 TemperatureHumidityPressure
High95 °F (Jul 25, 3:53 PM)100% (Jul 18, 6:53 AM)30.20 "Hg (Jul 18, 6:53 AM)
Low54 °F (Jul 16, 4:53 AM)29% (Jul 27, 4:53 PM)29.74 "Hg (Jul 25, 7:53 PM)
Average74 °F68%30.00 "Hg
* Reported Jul 14 4:53 AM — Jul 29 4:53 AM, Olathe, Weather by CustomWeather, © 2014

Note: Actual official high and low records may vary slightly from our data, if they occured in-between our weather recording intervals... More about our weather records

Advertising

Olathe weather history for previous 24 hours

 ConditionsComfort  
Time TempWeatherWind HumidityBarometerVisibility
4:53 AM
Jul 29
61 °FClear.No wind90%30.13 "Hg10 mi
3:53 AM63 °FClear.No wind84%30.13 "Hg10 mi
2:53 AM65 °FClear.No wind81%30.14 "Hg10 mi
1:53 AM66 °FClear.No wind78%30.14 "Hg10 mi
12:53 AM68 °FClear.3 mph73%30.15 "Hg10 mi
11:53 PM
Jul 28
68 °FClear.3 mph73%30.14 "Hg10 mi
10:53 PM70 °FClear.3 mph68%30.14 "Hg10 mi
9:53 PM72 °FClear.5 mph64%30.14 "Hg10 mi
8:53 PM73 °FSunny.6 mph62%30.12 "Hg10 mi
7:53 PM76 °FScattered clouds.12 mph52%30.11 "Hg10 mi
6:53 PM79 °FScattered clouds.8 mph47%30.11 "Hg10 mi
5:53 PM79 °FPassing clouds.9 mph47%30.13 "Hg10 mi
4:53 PM79 °FScattered clouds.12 mph47%30.14 "Hg10 mi
3:55 PM79 °FPassing clouds.8 mph45%30.18 "Hg10 mi
2:53 PM80 °FPartly sunny.12 mph45%30.16 "Hg10 mi
1:53 PM79 °FScattered clouds.10 mph48%30.18 "Hg10 mi
12:53 PM78 °FScattered clouds.7 mph50%30.20 "Hg10 mi
11:53 AM75 °FPassing clouds.8 mph58%30.19 "Hg10 mi
10:53 AM73 °FSunny.8 mph59%30.20 "Hg10 mi
9:53 AM70 °FSunny.7 mph68%30.19 "Hg10 mi
8:53 AM68 °FSunny.10 mph70%30.18 "Hg10 mi
7:53 AM65 °FSunny.8 mph78%30.16 "Hg10 mi
6:53 AM63 °FClear.5 mph81%30.15 "Hg10 mi
Weather by CustomWeather, © 2014

See weather overviewHow to use our weather pages